Hourly Data Report for October 02, 2013

All times are specified in Local Standard Time (LST). Add 1 hour to adjust for Daylight Saving Time where and when it is observed.

TORONTO INTL A
ONTARIO

43°40'36.000" N
79°37'50.000" W
173.40 m
6158731
71624
YYZ

Download Data

Hourly Data (October 2013)
Hourly Data Report for October 2, 2013
Temp Definition
°C
Dew Point Temp Definition
°C
Rel Hum Definition
%
Wind Dir Definition
10's deg

Wind Spd Definition
km/h
Visibility Definition
km
Stn Press Definition
kPa
Hmdx Definition


Wind Chill Definition


Weather Definition


TIME
00:00 Legend Double Dagger 17.8 14.7 82 25 21 24.1 99.19     LegendNANA
01:00 Legend Double Dagger 17.6 14.7 83 24 14 24.1 99.21     Mostly Cloudy
02:00 Legend Double Dagger 16.9 14.6 86 24 11 24.1 99.22     LegendNANA
03:00 Legend Double Dagger 18.3 15.2 82 25 15 24.1 99.20     LegendNANA
04:00 Legend Double Dagger 17.4 15.1 86 25 15 24.1 99.24     Mostly Cloudy
05:00 Legend Double Dagger 18.2 15.5 84 25 18 24.1 99.30     LegendNANA
06:00 Legend Double Dagger 18.2 15.5 84 25 14 19.3 99.34     LegendNANA
07:00 Legend Double Dagger 18.5 15.6 83 26 16 16.1 99.38     Mostly Cloudy
08:00 Legend Double Dagger 19.3 16.0 81 25 15 19.3 99.43     LegendNANA
09:00 Legend Double Dagger 20.4 15.1 71 28 20 24.1 99.48     LegendNANA
10:00 Legend Double Dagger 21.4 14.2 63 32 14 24.1 99.51 25   Mainly Clear
11:00 Legend Double Dagger 22.7 10.0 44 33 15 24.1 99.53     LegendNANA
12:00 Legend Double Dagger 23.6 9.4 40 30 19 24.1 99.54 25   LegendNANA
13:00 Legend Double Dagger 24.2 10.3 41 28 18 24.1 99.51 26   Clear
14:00 Legend Double Dagger 24.6 8.3 35 30 21 24.1 99.50 25   LegendNANA
15:00 Legend Double Dagger 24.1 7.5 34 28 28 24.1 99.54     LegendNANA
16:00 Legend Double Dagger 23.4 4.6 29 30 27 24.1 99.54     Clear
17:00 Legend Double Dagger 22.1 4.4 31 30 23 24.1 99.57     LegendNANA
18:00 Legend Double Dagger 20.2 4.4 35 29 16 24.1 99.64     LegendNANA
19:00 Legend Double Dagger 18.2 3.8 38 30 16 24.1 99.71     Mainly Clear
20:00 Legend Double Dagger 16.8 3.6 41 32 18 24.1 99.75     LegendNANA
21:00 Legend Double Dagger 14.4 4.5 51 28 12 24.1 99.81     LegendNANA
22:00 Legend Double Dagger 14.1 4.7 53 31 9 24.1 99.81     Clear
23:00 Legend Double Dagger 13.4 4.9 56 29 14 24.1 99.84     LegendNANA

Notes on Data Quality.

Legend

  • E = Estimated
  • M = Missing
  • NA = Not Available
  • ‡ = Partner data that is not subject to review by the National Climate Archives
Date modified: